Starlink 34449

operational
NORAD ID: 64465 Int'l Des: 2025-130 Owner: SPXS Country: US Constellation: starlink
LEOCIRCULAR

关于 Starlink 34449

正在加载描述...

实时位置

正在加载3D地球...

即将过境

高度历史

Altitude vs Time

uPlot chart will show altitude changes over time

两行轨道根数

1 64465U 25130AD 26062.17352343 .00029800 00000-0 10138-2 0 9994
2 64465 53.1579 118.9156 0001410 94.4702 265.6460 15.30214651 39706
Epoch: Mar 3, 2026 • Age: 21 hours

当前状态

高度 494.0 km
速度 7.62 km/s
星下点 -52.03°S, 107.84°W
发射日期 Jun 18, 2025
运行时间 0.7 years
类型 internet

技术详情

分类 Payload
质量 575.00 kg
干质量 530.00 kg
总质量 575.00 kg
长度 0.30 m
直径 4.10 m
跨度 29.00 m
形状 Box + pan
制造商 SPXS
平台类型 Starlink V2MO
阶段状态 In Orbit
所有者/国家 SPXS/US

大型星座

Loading constellations...